Time,TemperatureF,DewpointF,PressureIn,WindDirection,WindDirectionDegrees,WindSpeedMPH,WindSpeedGustMPH,Humidity,HourlyPrecipIn,Conditions,Clouds,dailyrainin,SoftwareType,DateUTC
2013-06-08 00:05:00,68.6,68.3,29.80,WNW,295,0.0,0.0,99,0.00,,,0.00,Wunderground v.1.15,2013-06-08 04:05:00,
2013-06-08 00:10:00,68.5,68.2,29.80,WNW,295,0.0,0.0,99,0.00,,,0.00,Wunderground v.1.15,2013-06-08 04:10:00,
2013-06-08 07:25:00,67.3,67.3,29.87,WNW,291,0.0,0.0,100,0.00,,,0.09,Wunderground v.1.15,2013-06-08 11:25:00,
2013-06-08 07:40:00,67.5,67.5,29.87,WNW,291,0.0,0.0,100,0.00,,,0.09,Wunderground v.1.15,2013-06-08 11:40:00,
2013-06-08 07:45:00,67.7,67.7,29.88,WNW,291,0.0,0.0,100,0.00,,,0.09,Wunderground v.1.15,2013-06-08 11:45:00,
2013-06-08 07:55:00,67.9,67.9,29.88,WNW,290,0.0,0.0,100,0.00,,,0.09,Wunderground v.1.15,2013-06-08 11:55:00,
2013-06-08 08:00:00,68.1,68.1,29.88,WNW,290,0.0,0.0,100,0.00,,,0.09,Wunderground v.1.15,2013-06-08 12:00:00,
2013-06-08 08:10:00,68.3,68.3,29.89,WNW,291,0.0,0.0,100,0.00,,,0.09,Wunderground v.1.15,2013-06-08 12:10:00,
2013-06-08 08:15:00,68.4,68.4,29.89,WNW,290,0.0,0.0,100,0.00,,,0.09,Wunderground v.1.15,2013-06-08 12:15:00,
2013-06-08 08:20:00,68.5,68.5,29.89,WNW,290,0.0,0.0,100,0.00,,,0.09,Wunderground v.1.15,2013-06-08 12:20:00,
2013-06-08 08:25:00,68.6,68.6,29.89,WNW,291,0.0,0.0,100,0.00,,,0.09,Wunderground v.1.15,2013-06-08 12:25:00,
2013-06-08 08:35:00,68.8,68.8,29.89,WNW,290,0.0,0.0,100,0.00,,,0.09,Wunderground v.1.15,2013-06-08 12:35:00,
2013-06-08 08:40:00,68.8,68.8,29.90,WNW,291,0.0,0.0,100,0.00,,,0.09,Wunderground v.1.15,2013-06-08 12:40:00,
2013-06-08 08:45:00,69.0,69.0,29.90,WNW,289,0.0,0.0,100,0.00,,,0.09,Wunderground v.1.15,2013-06-08 12:45:00,
2013-06-08 08:55:00,69.2,69.2,29.90,WNW,290,0.0,0.0,100,0.00,,,0.09,Wunderground v.1.15,2013-06-08 12:55:00,
2013-06-08 09:00:00,69.3,69.3,29.91,WNW,291,0.0,0.0,100,0.00,,,0.09,Wunderground v.1.15,2013-06-08 13:00:00,
2013-06-08 09:10:00,69.3,69.3,29.92,NNW,335,0.0,0.0,100,0.00,,,0.09,Wunderground v.1.15,2013-06-08 13:10:00,
2013-06-08 09:15:00,69.4,69.4,29.92,NNW,334,0.0,0.0,100,0.00,,,0.09,Wunderground v.1.15,2013-06-08 13:15:00,
2013-06-08 09:25:00,69.6,69.6,29.92,NE,56,0.0,0.0,100,0.00,,,0.09,Wunderground v.1.15,2013-06-08 13:25:00,
2013-06-08 09:30:00,69.7,69.7,29.92,West,276,0.0,0.0,100,0.00,,,0.09,Wunderground v.1.15,2013-06-08 13:30:00,
2013-06-08 09:40:00,69.8,69.8,29.93,WSW,248,0.0,0.0,100,0.00,,,0.09,Wunderground v.1.15,2013-06-08 13:40:00,
2013-06-08 09:45:00,69.9,69.9,29.93,WSW,248,0.0,0.0,100,0.00,,,0.09,Wunderground v.1.15,2013-06-08 13:45:00,
2013-06-08 09:50:00,69.9,69.9,29.93,WSW,249,0.0,0.0,100,0.00,,,0.09,Wunderground v.1.15,2013-06-08 13:50:00,
2013-06-08 09:55:00,69.9,69.9,29.93,WNW,283,0.0,2.0,100,0.00,,,0.09,Wunderground v.1.15,2013-06-08 13:55:00,
2013-06-08 10:05:00,68.3,67.7,29.94,South,179,1.0,2.0,98,0.00,,,0.09,Wunderground v.1.15,2013-06-08 14:05:00,
2013-06-08 10:10:00,67.6,66.7,29.94,South,169,1.0,1.0,97,0.00,,,0.09,Wunderground v.1.15,2013-06-08 14:10:00,
2013-06-08 10:20:00,67.0,66.1,29.95,SSE,161,0.0,0.0,97,0.00,,,0.09,Wunderground v.1.15,2013-06-08 14:20:00,
2013-06-08 10:25:00,66.9,66.0,29.95,SSE,161,0.0,0.0,97,0.00,,,0.09,Wunderground v.1.15,2013-06-08 14:25:00,
2013-06-08 10:30:00,66.8,65.9,29.95,SSE,160,0.0,0.0,97,0.00,,,0.09,Wunderground v.1.15,2013-06-08 14:30:00,
2013-06-08 10:40:00,66.8,66.2,29.95,SSE,160,0.0,0.0,98,0.00,,,0.09,Wunderground v.1.15,2013-06-08 14:40:00,
2013-06-08 10:45:00,67.0,66.4,29.95,SSE,160,0.0,0.0,98,0.00,,,0.09,Wunderground v.1.15,2013-06-08 14:45:00,
2013-06-08 10:55:00,67.6,67.0,29.95,SSW,195,0.0,0.0,98,0.00,,,0.09,Wunderground v.1.15,2013-06-08 14:55:00,
2013-06-08 11:05:00,68.8,67.9,29.95,SW,228,0.0,2.0,97,0.00,,,0.09,Wunderground v.1.15,2013-06-08 15:05:00,
2013-06-08 11:10:00,69.6,68.1,29.95,SSW,203,1.0,1.0,95,0.00,,,0.09,Wunderground v.1.15,2013-06-08 15:10:00,
2013-06-08 11:20:00,69.9,68.1,29.96,South,176,0.0,0.0,94,0.00,,,0.09,Wunderground v.1.15,2013-06-08 15:20:00,
2013-06-08 11:25:00,70.3,68.5,29.96,South,176,0.0,0.0,94,0.00,,,0.09,Wunderground v.1.15,2013-06-08 15:25:00,
2013-06-08 11:35:00,70.7,68.9,29.96,SSE,165,0.0,0.0,94,0.00,,,0.09,Wunderground v.1.15,2013-06-08 15:35:00,
2013-06-08 11:45:00,71.0,68.9,29.96,SE,143,0.0,0.0,93,0.00,,,0.09,Wunderground v.1.15,2013-06-08 15:45:00,
2013-06-08 11:55:00,72.0,69.9,29.96,SE,143,0.0,0.0,93,0.00,,,0.09,Wunderground v.1.15,2013-06-08 15:55:00,
2013-06-08 12:00:00,72.3,69.8,29.96,SE,143,0.0,0.0,92,0.00,,,0.09,Wunderground v.1.15,2013-06-08 16:00:00,
2013-06-08 12:10:00,72.8,69.4,29.96,SSW,211,0.0,0.0,89,0.00,,,0.09,Wunderground v.1.15,2013-06-08 16:10:00,
2013-06-08 12:20:00,73.6,69.5,29.96,SW,226,0.0,0.0,87,0.00,,,0.09,Wunderground v.1.15,2013-06-08 16:20:00,
2013-06-08 12:25:00,74.2,70.7,29.96,SSE,162,0.0,0.0,89,0.00,,,0.09,Wunderground v.1.15,2013-06-08 16:25:00,
2013-06-08 12:35:00,74.6,70.5,29.96,SSE,159,0.0,0.0,87,0.00,,,0.09,Wunderground v.1.15,2013-06-08 16:35:00,
2013-06-08 12:40:00,74.9,71.1,29.96,SSE,159,0.0,0.0,88,0.00,,,0.09,Wunderground v.1.15,2013-06-08 16:40:00,
2013-06-08 12:45:00,75.6,71.5,29.96,SE,138,0.0,1.0,87,0.00,,,0.09,Wunderground v.1.15,2013-06-08 16:45:00,
2013-06-08 12:55:00,77.7,71.8,29.96,SW,232,0.0,1.0,82,0.00,,,0.09,Wunderground v.1.15,2013-06-08 16:55:00,
2013-06-08 13:00:00,78.4,71.7,29.95,SE,141,0.0,0.0,80,0.00,,,0.09,Wunderground v.1.15,2013-06-08 17:00:00,
2013-06-08 13:10:00,79.7,72.2,29.95,WNW,298,1.0,1.0,78,0.00,,,0.09,Wunderground v.1.15,2013-06-08 17:10:00,
2013-06-08 13:15:00,80.3,72.8,29.95,East,92,1.0,1.0,78,0.00,,,0.09,Wunderground v.1.15,2013-06-08 17:15:00,
2013-06-08 13:25:00,80.1,71.5,29.95,NW,318,1.0,3.0,75,0.00,,,0.09,Wunderground v.1.15,2013-06-08 17:25:00,
2013-06-08 13:30:00,80.2,71.2,29.95,NW,312,1.0,1.0,74,0.00,,,0.09,Wunderground v.1.15,2013-06-08 17:30:00,
2013-06-08 13:35:00,79.9,71.7,29.95,NNW,332,0.0,1.0,76,0.00,,,0.09,Wunderground v.1.15,2013-06-08 17:35:00,
2013-06-08 13:40:00,79.8,70.8,29.95,West,273,0.0,0.0,74,0.00,,,0.09,Wunderground v.1.15,2013-06-08 17:40:00,
2013-06-08 13:50:00,80.1,71.5,29.95,WSW,257,0.0,2.0,75,0.00,,,0.09,Wunderground v.1.15,2013-06-08 17:50:00,
2013-06-08 13:55:00,80.6,71.9,29.95,NNW,336,1.0,2.0,75,0.00,,,0.09,Wunderground v.1.15,2013-06-08 17:55:00,
2013-06-08 14:00:00,80.8,71.7,29.95,South,173,1.0,1.0,74,0.00,,,0.09,Wunderground v.1.15,2013-06-08 18:00:00,
2013-06-08 14:10:00,81.4,72.7,29.95,West,278,0.0,0.0,75,0.00,,,0.09,Wunderground v.1.15,2013-06-08 18:10:00,
2013-06-08 14:15:00,82.1,73.4,29.95,West,277,0.0,0.0,75,0.00,,,0.09,Wunderground v.1.15,2013-06-08 18:15:00,
2013-06-08 14:25:00,82.1,72.2,29.95,West,278,1.0,1.0,72,0.00,,,0.09,Wunderground v.1.15,2013-06-08 18:25:00,
2013-06-08 14:30:00,82.6,72.2,29.95,NNE,20,1.0,1.0,71,0.00,,,0.09,Wunderground v.1.15,2013-06-08 18:30:00,
2013-06-08 14:40:00,82.7,71.9,29.95,East,94,0.0,0.0,70,0.00,,,0.09,Wunderground v.1.15,2013-06-08 18:40:00,
2013-06-08 14:45:00,82.8,72.0,29.95,NW,307,1.0,1.0,70,0.00,,,0.09,Wunderground v.1.15,2013-06-08 18:45:00,
2013-06-08 14:50:00,83.1,71.9,29.95,ENE,67,0.0,0.0,69,0.00,,,0.09,Wunderground v.1.15,2013-06-08 18:50:00,
2013-06-08 15:00:00,82.7,73.6,29.95,NNE,13,1.0,1.0,74,0.00,,,0.09,Wunderground v.1.15,2013-06-08 19:00:00,
2013-06-08 15:10:00,83.3,71.6,29.95,SSE,150,1.0,1.0,68,0.00,,,0.09,Wunderground v.1.15,2013-06-08 19:10:00,
2013-06-08 15:15:00,83.9,73.5,29.95,SSE,160,1.0,1.0,71,0.00,,,0.09,Wunderground v.1.15,2013-06-08 19:15:00,
2013-06-08 15:20:00,84.6,72.0,29.95,WSW,253,0.0,0.0,66,0.00,,,0.09,Wunderground v.1.15,2013-06-08 19:20:00,
2013-06-08 15:30:00,84.7,73.0,29.95,NW,326,0.0,1.0,68,0.00,,,0.09,Wunderground v.1.15,2013-06-08 19:30:00,
2013-06-08 15:40:00,84.1,72.0,29.95,WSW,250,1.0,2.0,67,0.00,,,0.09,Wunderground v.1.15,2013-06-08 19:40:00,
2013-06-08 15:45:00,83.6,71.5,29.94,SW,225,1.0,2.0,67,0.00,,,0.09,Wunderground v.1.15,2013-06-08 19:45:00,
2013-06-08 15:55:00,83.4,71.3,29.95,West,271,0.0,1.0,67,0.00,,,0.09,Wunderground v.1.15,2013-06-08 19:55:00,
2013-06-08 16:00:00,83.3,71.6,29.95,SSW,211,0.0,0.0,68,0.00,,,0.09,Wunderground v.1.15,2013-06-08 20:00:00,
2013-06-08 16:10:00,83.2,71.5,29.95,NNE,25,1.0,1.0,68,0.00,,,0.09,Wunderground v.1.15,2013-06-08 20:10:00,
2013-06-08 16:15:00,83.5,71.4,29.95,NE,48,1.0,2.0,67,0.00,,,0.09,Wunderground v.1.15,2013-06-08 20:15:00,
2013-06-08 16:20:00,83.1,71.4,29.95,SW,221,1.0,1.0,68,0.00,,,0.09,Wunderground v.1.15,2013-06-08 20:20:00,
2013-06-08 16:25:00,83.2,72.0,29.95,SW,221,1.0,1.0,69,0.00,,,0.09,Wunderground v.1.15,2013-06-08 20:25:00,
2013-06-08 16:35:00,83.0,72.2,29.95,SE,141,0.0,0.0,70,0.00,,,0.09,Wunderground v.1.15,2013-06-08 20:35:00,
2013-06-08 16:40:00,82.8,73.3,29.95,SE,141,0.0,0.0,73,0.00,,,0.09,Wunderground v.1.15,2013-06-08 20:40:00,
2013-06-08 16:45:00,82.6,73.9,29.95,SE,141,0.0,0.0,75,0.00,,,0.09,Wunderground v.1.15,2013-06-08 20:45:00,
2013-06-08 16:55:00,83.6,75.6,29.95,SSW,203,0.0,2.0,77,0.00,,,0.09,Wunderground v.1.15,2013-06-08 20:55:00,
2013-06-08 17:00:00,83.1,72.7,29.95,South,184,0.0,0.0,71,0.00,,,0.09,Wunderground v.1.15,2013-06-08 21:00:00,
2013-06-08 17:10:00,83.8,73.4,29.96,SW,222,1.0,1.0,71,0.00,,,0.09,Wunderground v.1.15,2013-06-08 21:10:00,
2013-06-08 17:15:00,84.5,74.9,29.96,West,263,0.0,1.0,73,0.00,,,0.09,Wunderground v.1.15,2013-06-08 21:15:00,
2013-06-08 17:20:00,84.2,74.6,29.96,West,263,0.0,0.0,73,0.00,,,0.09,Wunderground v.1.15,2013-06-08 21:20:00,
2013-06-08 17:30:00,84.8,72.2,29.96,SSE,160,1.0,1.0,66,0.00,,,0.09,Wunderground v.1.15,2013-06-08 21:30:00,
2013-06-08 17:35:00,85.4,73.2,29.96,SSW,208,0.0,1.0,67,0.00,,,0.09,Wunderground v.1.15,2013-06-08 21:35:00,
2013-06-08 17:45:00,84.8,73.5,29.96,SE,136,0.0,0.0,69,0.00,,,0.09,Wunderground v.1.15,2013-06-08 21:45:00,
2013-06-08 17:50:00,84.4,74.4,29.96,SE,137,0.0,0.0,72,0.00,,,0.09,Wunderground v.1.15,2013-06-08 21:50:00,
2013-06-08 17:55:00,84.1,74.5,29.96,SE,136,0.0,0.0,73,0.00,,,0.09,Wunderground v.1.15,2013-06-08 21:55:00,
2013-06-08 18:00:00,83.7,74.9,29.96,SE,137,0.0,0.0,75,0.00,,,0.09,Wunderground v.1.15,2013-06-08 22:00:00,
2013-06-08 18:10:00,82.4,74.1,29.96,SE,136,0.0,0.0,76,0.00,,,0.09,Wunderground v.1.15,2013-06-08 22:10:00,
2013-06-08 18:15:00,82.7,74.8,29.96,SE,136,0.0,0.0,77,0.00,,,0.09,Wunderground v.1.15,2013-06-08 22:15:00,
2013-06-08 18:25:00,84.1,73.7,29.97,South,179,0.0,0.0,71,0.00,,,0.09,Wunderground v.1.15,2013-06-08 22:25:00,
2013-06-08 18:30:00,84.0,74.4,29.97,South,179,0.0,0.0,73,0.00,,,0.09,Wunderground v.1.15,2013-06-08 22:30:00,
2013-06-08 18:40:00,84.1,75.3,29.98,WNW,288,0.0,0.0,75,0.00,,,0.09,Wunderground v.1.15,2013-06-08 22:40:00,
2013-06-08 18:45:00,84.2,75.4,29.98,WNW,288,0.0,0.0,75,0.00,,,0.09,Wunderground v.1.15,2013-06-08 22:45:00,
2013-06-08 18:50:00,83.4,73.4,29.98,WNW,287,0.0,0.0,72,0.00,,,0.09,Wunderground v.1.15,2013-06-08 22:50:00,
2013-06-08 19:00:00,82.4,74.8,29.98,WSW,248,0.0,0.0,78,0.00,,,0.09,Wunderground v.1.15,2013-06-08 23:00:00,
2013-06-08 19:05:00,82.2,74.3,29.98,WSW,246,0.0,0.0,77,0.00,,,0.09,Wunderground v.1.15,2013-06-08 23:05:00,
2013-06-08 19:10:00,82.0,74.1,29.98,WSW,245,0.0,0.0,77,0.00,,,0.09,Wunderground v.1.15,2013-06-08 23:10:00,
2013-06-08 19:20:00,80.0,73.6,29.98,WSW,245,0.0,0.0,81,0.00,,,0.09,Wunderground v.1.15,2013-06-08 23:20:00,
2013-06-08 19:25:00,79.3,73.3,29.99,WSW,245,0.0,0.0,82,0.00,,,0.09,Wunderground v.1.15,2013-06-08 23:25:00,
2013-06-08 19:30:00,78.9,73.7,29.99,WSW,245,0.0,0.0,84,0.00,,,0.09,Wunderground v.1.15,2013-06-08 23:30:00,
2013-06-08 19:40:00,78.1,73.2,29.99,WSW,245,0.0,0.0,85,0.00,,,0.09,Wunderground v.1.15,2013-06-08 23:40:00,
2013-06-08 19:45:00,77.4,72.9,29.99,WSW,245,0.0,0.0,86,0.00,,,0.09,Wunderground v.1.15,2013-06-08 23:45:00,
2013-06-08 19:50:00,76.7,72.5,29.99,WSW,245,0.0,0.0,87,0.00,,,0.09,Wunderground v.1.15,2013-06-08 23:50:00,
2013-06-08 20:00:00,75.6,72.1,30.00,WSW,243,0.0,0.0,89,0.00,,,0.09,Wunderground v.1.15,2013-06-09 00:00:00,
2013-06-08 20:05:00,74.9,71.8,30.01,WSW,241,0.0,0.0,90,0.00,,,0.09,Wunderground v.1.15,2013-06-09 00:05:00,
2013-06-08 20:10:00,74.5,71.7,30.01,WSW,240,0.0,0.0,91,0.00,,,0.09,Wunderground v.1.15,2013-06-09 00:10:00,
2013-06-08 20:20:00,74.1,71.6,30.00,WSW,240,0.0,0.0,92,0.00,,,0.09,Wunderground v.1.15,2013-06-09 00:20:00,
2013-06-08 20:25:00,74.0,71.5,30.01,WSW,240,0.0,0.0,92,0.00,,,0.09,Wunderground v.1.15,2013-06-09 00:25:00,
2013-06-08 20:30:00,73.7,71.5,30.01,WSW,240,0.0,0.0,93,0.00,,,0.09,Wunderground v.1.15,2013-06-09 00:30:00,
2013-06-08 20:40:00,73.2,71.4,30.01,WSW,240,0.0,0.0,94,0.00,,,0.09,Wunderground v.1.15,2013-06-09 00:40:00,
2013-06-08 20:45:00,72.9,71.1,30.01,WSW,240,0.0,0.0,94,0.00,,,0.09,Wunderground v.1.15,2013-06-09 00:45:00,
2013-06-08 20:50:00,72.8,71.3,30.01,WSW,240,0.0,0.0,95,0.00,,,0.09,Wunderground v.1.15,2013-06-09 00:50:00,
2013-06-08 21:00:00,72.4,70.9,30.01,WSW,240,0.0,0.0,95,0.00,,,0.09,Wunderground v.1.15,2013-06-09 01:00:00,
2013-06-08 21:05:00,72.3,71.1,30.02,WSW,240,0.0,0.0,96,0.00,,,0.09,Wunderground v.1.15,2013-06-09 01:05:00,
2013-06-08 21:10:00,72.1,70.9,30.02,WSW,240,0.0,0.0,96,0.00,,,0.09,Wunderground v.1.15,2013-06-09 01:10:00,
2013-06-08 21:15:00,71.9,70.7,30.03,WSW,240,0.0,0.0,96,0.00,,,0.09,Wunderground v.1.15,2013-06-09 01:15:00,
2013-06-08 21:25:00,71.5,70.3,30.03,WSW,240,0.0,0.0,96,0.00,,,0.09,Wunderground v.1.15,2013-06-09 01:25:00,
2013-06-08 21:30:00,71.4,70.2,30.03,WSW,237,0.0,1.0,96,0.00,,,0.09,Wunderground v.1.15,2013-06-09 01:30:00,
2013-06-08 21:40:00,71.3,70.4,30.04,WSW,237,0.0,0.0,97,0.00,,,0.09,Wunderground v.1.15,2013-06-09 01:40:00,
2013-06-08 21:45:00,71.2,70.3,30.04,WSW,238,0.0,0.0,97,0.00,,,0.09,Wunderground v.1.15,2013-06-09 01:45:00,
2013-06-08 21:50:00,71.0,70.1,30.05,WSW,238,0.0,0.0,97,0.00,,,0.09,Wunderground v.1.15,2013-06-09 01:50:00,
2013-06-08 22:00:00,70.8,69.9,30.05,WSW,238,0.0,0.0,97,0.00,,,0.09,Wunderground v.1.15,2013-06-09 02:00:00,
2013-06-08 22:10:00,70.7,69.8,30.05,WSW,238,0.0,0.0,97,0.00,,,0.09,Wunderground v.1.15,2013-06-09 02:10:00,
2013-06-08 22:15:00,70.6,69.7,30.06,SW,236,0.0,0.0,97,0.00,,,0.09,Wunderground v.1.15,2013-06-09 02:15:00,
2013-06-08 22:25:00,70.5,69.6,30.06,WSW,237,0.0,0.0,97,0.00,,,0.09,Wunderground v.1.15,2013-06-09 02:25:00,
2013-06-08 22:30:00,70.3,69.4,30.06,SW,236,0.0,0.0,97,0.00,,,0.09,Wunderground v.1.15,2013-06-09 02:30:00,
2013-06-08 22:40:00,70.1,69.2,30.06,WSW,238,0.0,0.0,97,0.00,,,0.09,Wunderground v.1.15,2013-06-09 02:40:00,
2013-06-08 22:45:00,69.9,69.0,30.06,WSW,238,0.0,0.0,97,0.00,,,0.09,Wunderground v.1.15,2013-06-09 02:45:00,
2013-06-08 22:55:00,69.7,69.1,30.06,WSW,238,0.0,0.0,98,0.00,,,0.09,Wunderground v.1.15,2013-06-09 02:55:00,
2013-06-08 23:00:00,69.6,69.0,30.07,WSW,238,0.0,0.0,98,0.00,,,0.09,Wunderground v.1.15,2013-06-09 03:00:00,
2013-06-08 23:10:00,69.3,68.7,30.06,WSW,238,0.0,0.0,98,0.00,,,0.09,Wunderground v.1.15,2013-06-09 03:10:00,
2013-06-08 23:15:00,69.2,68.6,30.06,WSW,238,0.0,0.0,98,0.00,,,0.09,Wunderground v.1.15,2013-06-09 03:15:00,
2013-06-08 23:25:00,69.1,68.5,30.07,SW,236,0.0,0.0,98,0.00,,,0.09,Wunderground v.1.15,2013-06-09 03:25:00,
2013-06-08 23:35:00,69.0,68.4,30.07,SW,236,0.0,0.0,98,0.00,,,0.09,Wunderground v.1.15,2013-06-09 03:35:00,
2013-06-08 23:40:00,68.9,68.3,30.06,SW,236,0.0,0.0,98,0.00,,,0.09,Wunderground v.1.15,2013-06-09 03:40:00,
2013-06-08 23:50:00,68.7,68.1,30.06,SW,236,0.0,0.0,98,0.00,,,0.09,Wunderground v.1.15,2013-06-09 03:50:00,
2013-06-08 23:55:00,68.6,68.0,30.06,SW,236,0.0,0.0,98,0.00,,,0.09,Wunderground v.1.15,2013-06-09 03:55:00,